Location: Blatten
(46.3589°N, 7.9851°E)
Time: 14:59:31
(UTC+00:00)

Daily predictions for brighter satellites

Satellite Brightness Start Highest point End
(mag) Time Altitude Azimuth Time Altitude Azimuth Time Altitude Azimuth
Meteor 1-10 Rocket 4.2 19:32:03 10° S 19:37:34 77° E 19:43:13 10° NNE
Cosmos 1933 Rocket 4.2 19:36:48 10° N 19:41:02 39° ENE 19:45:12 10° SE
EXPRESS MD2 3.9 19:35:07 10° WNW 19:42:17 83° SSW 19:45:51 10° ESE
Cosmos 1666 Rocket 4.2 19:38:48 10° NNW 19:43:09 60° W 19:47:30 10° S
Cosmos 1515 3.9 19:40:39 10° S 19:44:17 48° E 19:47:56 10° NNE
CZ-4B R/B 1.4 19:42:15 10° NNE 19:45:23 50° E 19:48:26 10° S
SPOT 1/Viking Rocket 3.7 19:41:00 10° SSE 19:46:04 60° ENE 19:51:10 10° N
Helios 1A Rocket 4.5 19:43:36 10° ESE 19:46:39 21° ENE 19:49:44 10° NNE
Resurs 1-3 4.2 19:42:33 10° S 19:46:53 60° W 19:51:14 10° NNW
Meteor 1-27 Rocket 3.9 19:41:20 10° S 19:46:59 59° E 19:52:45 10° NNE
CZ-4 R/B 4.4 19:47:47 10° WSW 19:49:19 12° W 19:50:51 10° WNW
Cosmos 1633 Rocket 3.6 19:47:03 10° NNW 19:51:22 59° W 19:55:38 10° S
Cosmos 2219 3.4 19:46:54 10° NNW 19:52:32 72° WSW 19:58:06 10° SSE
SJ 16-02 2.4 19:50:08 10° SSE 19:53:46 26° E 19:57:25 10° NE
H-2A R/B 4.4 19:50:12 10° SSW 19:54:03 30° W 19:57:49 10° NW
Cosmos 1315 Rocket 4.1 19:50:43 10° NNW 19:54:34 41° W 19:58:21 10° SSW
Cosmos 1340 2.8 19:50:58 10° S 19:54:36 55° E 19:58:16 10° NNE
Cosmos 2082 3.8 19:53:44 10° NNW 19:59:23 72° ENE 20:04:58 10° SSE
Meteor 1-11 Rocket 4.0 19:54:28 10° NNW 20:00:29 81° W 20:06:25 10° S
Cosmos 482 Debris 4.4 19:58:52 10° NW 20:01:26 48° NNE 20:05:13 10° E
Cosmos 2263 Rocket 2.9 19:57:08 10° NNW 20:02:25 41° NE 20:07:29 11° SE
Cosmos 1470 Rocket 3.7 19:58:26 10° NNW 20:02:46 76° W 20:07:04 10° S
Ariane Rocket 3.0 20:00:52 10° SSE 20:05:55 83° ENE 20:11:02 10° NNW
Cosmos 1743 2.6 20:02:12 10° N 20:06:00 84° E 20:09:47 10° S
SPOT 5 3.8 20:06:30 11° SE 20:11:07 38° ENE 20:15:50 10° N
BREEZE-M DEB (TANK) 2.8 20:08:37 10° W 20:11:23 47° NNW 20:13:30 10° ENE
IRAS Rocket 4.3 20:06:27 10° NNE 20:12:07 83° ESE 20:17:45 10° SSW
Terra 3.1 20:09:04 11° ESE 20:12:49 26° ENE 20:16:44 10° N
Resurs 01 Rocket 2.1 20:10:22 10° S 20:14:42 61° W 20:19:06 10° NNW
Aureole 1 Rocket 2.5 20:13:29 10° SSW 20:16:40 66° WNW 20:19:39 10° NNE
Cosmos 1515 Rocket 3.7 20:13:00 10° SSW 20:17:21 76° W 20:21:47 10° N
Cosmos 1809 Rocket 4.5 20:12:35 10° N 20:18:44 72° E 20:24:46 11° SSE
Cosmos 2227 Rocket 3.3 20:15:08 10° NW 20:20:22 39° WSW 20:25:34 10° S
Cosmos 921 Rocket 3.1 20:17:10 10° NNW 20:21:43 86° ENE 20:25:38 13° SSE
SWAS 4.5 20:23:38 10° NNW 20:27:57 82° WSW 20:31:20 16° SSE
Cosmos 1980 Rocket 2.2 20:23:51 10° SSW 20:29:29 82° ESE 20:35:11 10° NNE
CARTOSAT-1 3.5 20:26:14 13° SSE 20:30:08 89° WSW 20:34:29 10° NNW
Cosmos 1869 Rocket 3.7 20:26:39 10° N 20:31:07 63° E 20:34:32 17° SSE
SL-24 R/B - RUBIN 2 4.4 20:27:02 10° NNW 20:31:11 41° NE 20:34:41 15° ESE
Cosmos 2228 Rocket 3.4 20:29:01 12° SSE 20:33:01 52° E 20:37:27 10° NNE
Cosmos 1464 Rocket 4.2 20:27:57 10° SSW 20:34:08 73° W 20:40:18 10° N
Cosmos 1378 3.7 20:34:31 19° SSE 20:36:37 37° E 20:40:01 10° NNE
Cosmos 2344 3.5 20:30:15 10° SW 20:37:47 88° SE 20:45:31 10° NE
Cosmos 2322 Rocket 3.6 20:36:17 16° SE 20:38:21 20° E 20:42:16 10° NE
Cosmos 1777 Rocket 4.1 20:33:40 10° S 20:38:45 56° ESE 20:43:53 10° NNE
ISS -3.6 20:35:50 10° WNW 20:39:11 70° NNE 20:41:27 19° ESE
Cosmos 2369 3.9 20:33:33 10° SSW 20:39:11 76° WNW 20:44:53 10° NNE
Spot 2 Rocket 3.5 20:35:42 17° SSE 20:39:37 68° ENE 20:44:39 10° N
Cosmos 1354 Rocket 4.0 20:34:41 10° SSW 20:39:58 89° ESE 20:45:19 10° NNE
SPOT 3 Rocket 3.6 20:36:10 13° S 20:40:49 78° WSW 20:46:00 10° NNW
Cosmos 773 Rocket 4.0 20:36:09 10° NNW 20:41:24 89° WSW 20:45:19 18° SSE
Cosmos 1536 4.4 20:37:51 10° NNW 20:41:29 33° W 20:45:06 10° SSW
Cosmos 1844 Rocket 4.4 20:37:22 10° N 20:41:40 22° NE 20:45:55 10° E
ATLAS 2AS CENTAUR R/B 2.9 20:34:41 10° SSW 20:42:26 71° ESE 20:49:59 10° NE
Okean 1 3.3 20:40:20 10° S 20:44:20 85° W 20:48:23 10° N
Meteor 2-4 Rocket 4.1 20:40:22 16° SSE 20:44:49 47° E 20:50:12 10° NNE
H-2A R/B 4.4 20:42:42 10° NNW 20:45:58 23° WNW 20:49:15 10° WSW
Meteor 1-19 Rocket 4.1 20:41:00 10° S 20:46:26 87° E 20:51:52 10° NNE
Cosmos 1092 Rocket 4.0 20:41:17 10° N 20:47:28 69° E 20:52:05 18° SSE
Nadezhda 4 Rocket 4.2 20:42:03 10° NNW 20:48:15 71° W 20:54:08 11° S
RESURS DK-1 2.2 20:44:14 10° SSW 20:48:20 76° ESE 20:52:27 10° NNE
Cosmos 1697 Rocket 4.1 20:43:15 10° SW 20:48:34 41° NW 20:53:56 10° NNE
SL-4 R/B 3.7 20:46:15 10° W 20:49:52 24° SW 20:52:09 16° S
Cosmos 1634 Rocket 4.1 20:49:58 16° SSE 20:54:49 57° E 21:00:52 10° NNE
ARIANE 5 R/B 3.0 20:53:39 23° SE 20:56:12 51° ENE 21:00:35 10° N
Cosmos 1707 Rocket 3.9 20:54:13 23° SSE 20:56:44 49° E 21:01:00 10° NNE
ATLAS CENTAUR R/B 3.9 20:53:35 10° NNW 20:57:06 19° NNE 21:00:31 10° ENE
Cosmos 44 Rocket 3.2 20:53:59 10° NNW 20:58:43 76° NE 21:01:28 25° SE
Cosmos 2227 4.3 20:58:36 10° NNW 21:04:24 78° ENE 21:07:59 24° SSE
Cosmos 158 Rocket 3.9 21:01:06 10° NNW 21:06:16 88° ENE 21:09:24 25° SSE
ATLAS 3B R/B 3.1 21:00:32 10° NW 21:07:52 67° NE 21:13:24 20° SE
NOSS 2-1 (E) 3.1 21:08:10 38° SSE 21:08:39 41° ESE 21:11:42 10° NE
Cosmos 1975 2.8 21:07:26 10° N 21:11:31 85° W 21:13:33 29° S
USA 81 4.0 21:09:01 22° S 21:12:22 69° E 21:17:38 10° N
Cosmos 2026 Rocket 4.0 21:06:32 10° N 21:12:43 90° ENE 21:17:00 22° S
ERS-1 Rocket 3.1 21:12:32 22° S 21:15:48 69° WSW 21:20:52 10° NNW
SL-16 R/B 2.3 21:13:28 20° S 21:17:16 54° ESE 21:22:49 10° NE
Meteor 1-4 Rocket 3.5 21:15:41 10° N 21:18:51 32° ENE 21:19:36 28° E
CZ-4C R/B 4.4 21:13:27 10° NNW 21:19:17 29° NNE 21:26:03 10° E
Helios 1A Rocket 4.1 21:19:01 18° SSW 21:21:32 36° W 21:25:15 10° NNW
Cosmos 1538 Rocket 3.9 21:16:22 10° NNW 21:21:39 86° ENE 21:24:18 30° SSE
GENESIS II 4.0 21:20:46 17° SSW 21:23:42 79° SE 21:27:38 10° NE
CZ-2C R/B 4.0 21:19:12 10° N 21:23:59 74° WNW 21:27:47 16° SSW
Cosmos 1733 Rocket 3.0 21:21:21 10° N 21:25:50 81° E 21:27:44 34° SSE
Meteor 2-8 Rocket 4.4 21:25:01 19° S 21:29:34 89° W 21:35:42 10° N
OE (NEXTSAT) 4.0 21:27:44 10° W 21:31:03 86° S 21:32:08 39° E
Geosat 4.1 21:28:35 29° SE 21:31:07 67° ENE 21:36:07 10° NNW
SJ 16-02 3.0 21:28:13 10° SW 21:32:11 33° WNW 21:36:11 10° N
SAR-Lupe-4 3.5 21:29:00 10° NNE 21:32:34 64° ESE 21:33:21 48° SSE
Cosmos 1356 3.9 21:35:10 40° E 21:35:10 40° E 21:38:16 10° NNE
Cosmos 2292 Rocket 4.3 21:34:42 10° NNW 21:37:19 27° W 21:38:15 23° SW
Cosmos 1908 Rocket 4.3 21:33:19 10° N 21:37:23 38° ENE 21:38:37 31° ESE
Cosmos 1862 Rocket 3.5 21:37:31 33° S 21:39:29 86° E 21:44:00 10° N
Cosmos 923 Rocket 4.4 21:34:29 10° NNW 21:39:45 57° ENE 21:42:10 31° SE
Cosmos 2360 Rocket 2.7 21:40:43 32° SE 21:42:23 40° ESE 21:47:39 10° NE
Cosmos 1937 Rocket 4.4 21:42:39 28° ESE 21:43:34 30° E 21:48:06 10° NE
Cosmos 1726 3.3 21:41:27 10° NNE 21:44:39 28° ENE 21:45:09 27° E
Cosmos 2263 Rocket 3.3 21:41:16 10° NW 21:46:15 34° WSW 21:49:11 21° SSW
ALOS 2 4.4 21:44:37 16° E 21:46:19 20° ENE 21:49:33 10° NNE
Meteor 1-13 Rocket 4.3 21:44:29 33° SSE 21:46:49 58° E 21:52:15 10° NNE
Cosmos 2266 Rocket 4.3 21:42:25 10° N 21:48:33 54° ENE 21:51:20 31° SE
NOSS 2-1 (C) 3.3 21:46:44 17° SW 21:49:02 56° NW 21:52:14 10° NNE
SPOT 5 4.4 21:45:43 16° SSW 21:49:11 32° W 21:53:48 10° NNW
Terra 2.7 21:47:57 23° SSW 21:50:22 40° W 21:54:53 10° NNW
Cosmos 1441 Rocket 3.0 21:51:04 51° SSW 21:51:56 85° WNW 21:55:40 10° N
Cosmos 1346 Rocket 3.8 21:50:23 21° SW 21:52:40 44° WNW 21:56:32 10° N
SAR-Lupe-1 4.4 21:50:03 10° N 21:53:36 60° WNW 21:54:47 37° SW
Cosmos 2279 Rocket 4.0 21:53:29 24° SSW 21:57:22 78° W 22:03:37 10° N
NOSS 2-1 (D) 3.9 21:56:58 14° WSW 21:59:32 43° NW 22:02:40 10° NNE
Cosmos 2112 Rocket 4.4 21:55:05 10° NNW 22:00:21 55° ENE 22:02:27 34° SE
Cosmos 990 Rocket 3.9 21:57:54 32° SSW 22:00:22 82° ESE 22:05:38 10° NNE
USA 215 3.5 21:54:24 10° ENE 22:00:40 46° SE 22:03:42 28° S
Cosmos 1680 Rocket 3.7 21:56:09 10° NNW 22:01:26 65° ENE 22:03:26 37° SE
MINOTAUR IV R/B 4.5 22:00:16 37° SSW 22:02:02 89° WNW 22:06:34 10° NNE
Iridium 2 4.1 21:59:54 10° NNW 22:03:35 54° W 22:04:23 44° SW
Cosmos 1842 4.4 22:03:47 28° E 22:03:47 28° E 22:07:07 10° NNE
Meteor 1-12 Rocket 4.3 22:00:33 10° N 22:06:32 79° E 22:08:54 38° SSE
Cosmos 1066 Rocket 4.2 22:05:06 31° SSW 22:08:01 83° W 22:13:43 10° N
ADEOS Rocket 4.2 22:05:31 19° ESE 22:08:33 30° ENE 22:13:42 10° N
Spot 4 4.2 22:07:13 37° ESE 22:08:44 53° ENE 22:13:24 10° N
Cosmos 1818 3.8 22:04:17 10° NNW 22:09:44 65° NE 22:12:08 33° ESE
Iridium 4 Rocket 3.3 22:07:51 10° N 22:12:26 67° E 22:13:44 46° SSE
Cosmos 1898 Rocket 3.5 22:11:50 41° S 22:13:43 73° ESE 22:19:02 10° NNE
ISS -1.6 22:13:02 10° W 22:14:21 17° WSW 22:14:21 17° WSW
Cosmos 1900 4.4 22:15:19 46° S 22:16:33 61° ESE 22:21:36 10° NE
Okean 1-7 2.9 22:17:25 56° S 22:18:18 82° E 22:22:42 10° N
Iridium 51 4.1 22:21:01 63° WSW 22:21:12 65° W 22:24:44 10° N
Cosmos 2322 Rocket 2.4 22:18:02 21° SW 22:21:48 68° WNW 22:27:25 10° NNE
Okean 3 3.3 22:25:02 63° SSE 22:25:34 74° E 22:29:49 10° NNE
Cosmos 1844 Rocket 2.6 22:20:35 10° NNW 22:26:11 75° WSW 22:27:57 44° S
Cosmos 2322 4.3 22:25:29 35° SE 22:26:25 37° ESE 22:31:39 10° NE
Cosmos 2333 Rocket 2.4 22:25:18 42° SSE 22:26:37 51° ESE 22:32:05 10° NE
Cosmos 1805 4.1 22:24:13 10° NNW 22:27:52 39° W 22:28:28 36° WSW
H-2A R/B 3.5 22:28:07 10° NNE 22:32:10 55° E 22:32:20 55° ESE
Cosmos 1461 4.2 22:28:20 10° NNW 22:32:10 35° NE 22:33:54 25° E
BREEZE-M DEB (TANK) 3.4 22:29:57 10° W 22:31:52 33° WSW 22:31:52 33° WSW
ATLAS 2AS CENTAUR R/B 4.3 22:26:48 10° WSW 22:33:58 39° NW 22:40:54 10° NNE
Meteor 1-23 Rocket 4.2 22:34:01 42° S 22:36:09 85° E 22:42:00 10° NNE
USA 267 3.7 22:29:58 10° ESE 22:36:25 61° NNE 22:42:51 10° NW
ATLAS CENTAUR R/B 1.7 22:31:47 10° NW 22:36:41 79° NE 22:37:50 51° SE
Cosmos 1766 3.7 22:39:15 10° NNW 22:43:04 51° W 22:43:23 49° WSW
Cosmos 2219 Rocket 2.3 22:44:47 46° SSE 22:45:57 55° ESE 22:51:24 10° NE
Cosmos 1703 Rocket 4.1 22:48:16 40° WSW 22:49:24 51° WNW 22:53:44 10° N
Cosmos 1844 3.9 22:44:10 10° NNW 22:49:52 59° WSW 22:51:27 44° SSW
Cosmos 372 Rocket 3.8 22:51:17 53° S 22:52:32 82° ESE 22:57:42 10° NNE
ATLAS 3B R/B 3.8 22:51:47 10° NW 22:58:15 33° WSW 23:00:38 28° SW
Cosmos 1707 2.8 23:00:36 64° E 23:00:36 64° E 23:04:20 10° NNE
SL-16 R/B 3.9 22:56:50 10° WSW 23:01:42 29° NW 23:06:36 10° N
NOSS 3-1 (A) 4.3 22:54:54 10° NW 23:02:13 67° NE 23:08:57 18° SE
Cosmos 1782 Rocket 4.0 23:00:07 10° NNW 23:04:19 48° W 23:04:50 46° WSW
Okean 2 3.8 23:06:39 49° E 23:06:41 49° E 23:10:39 10° NNE
ERS-2 2.1 23:03:25 10° NNE 23:06:52 78° NNW 23:06:52 78° NNW
CZ-4C R/B 3.0 23:01:39 10° NW 23:08:52 80° NE 23:14:17 25° SE
NOSS 3-1 (C) 4.0 23:02:05 10° NW 23:09:35 80° SW 23:14:03 33° SSE
USA 290 3.8 23:10:46 28° ENE 23:10:46 28° ENE 23:12:42 10° NE
Cosmos 1238 Rocket 3.7 23:09:48 10° N 23:11:57 30° NE 23:11:57 30° NE
Cosmos 2237 Rocket 3.4 23:14:56 25° ESE 23:15:48 26° ESE 23:20:25 10° NE
KORONAS-FOTON 4.0 23:16:49 58° ENE 23:16:49 58° ENE 23:20:22 10° NNE
Cosmos 1470 3.2 23:15:22 10° NNW 23:19:01 49° W 23:19:01 49° W
COSMOS 2428 2.7 23:17:53 50° S 23:19:19 72° ESE 23:25:00 10° NNE
Cosmos 1726 4.0 23:16:43 10° NW 23:19:26 20° W 23:19:26 20° W
Cosmos 1300 Rocket 3.6 23:16:12 10° NNW 23:20:30 61° W 23:20:51 58° WSW
ALOS 2 3.0 23:22:00 45° WSW 23:22:20 46° W 23:26:35 10° NNW
Cosmos 1745 Rocket 4.5 23:16:21 10° N 23:22:25 52° ENE 23:25:01 32° SE
PSLV R/B 3.9 23:18:57 10° NNE 23:23:16 54° E 23:23:40 52° ESE
Cosmos 2151 Rocket 3.6 23:18:59 10° N 23:23:23 65° E 23:23:57 58° ESE
USA 305 4.2 23:26:44 28° E 23:26:44 28° E 23:29:09 10° ENE
Cosmos 2360 Rocket 3.4 23:22:25 16° WSW 23:26:26 36° NW 23:31:39 10° NNE
Cosmos 1242 Rocket 2.7 23:22:51 10° NNW 23:26:07 71° NNW 23:26:07 71° NNW
Okean 2 Rocket 3.0 23:22:55 10° N 23:27:29 83° E 23:28:05 66° SSE
Cosmos 405 Rocket 3.4 23:28:20 41° E 23:28:20 41° E 23:31:40 10° NNE
Cosmos 1943 Rocket 4.5 23:25:54 10° N 23:30:07 21° NE 23:34:17 10° E
In-Cosmos 22 4.1 23:29:31 49° SSW 23:31:04 85° W 23:36:35 10° N
Cosmos 1437 Rocket 3.4 23:29:45 10° N 23:33:20 41° ENE 23:33:33 41° E
Nimbus 7 Rocket 4.3 23:28:30 10° NNE 23:34:25 75° ESE 23:36:12 46° S
Cosmos 1908 3.2 23:31:04 10° N 23:34:48 74° ENE 23:34:48 74° ENE
Cosmos 1867 3.5 23:33:44 49° SSW 23:35:18 88° ESE 23:40:50 10° NE
Cosmos 2298 Rocket 4.4 23:34:33 43° SE 23:35:30 48° ESE 23:40:36 10° NNE
Meteor 1-21 4.3 23:34:35 44° SSW 23:36:28 74° WNW 23:42:17 10° N
Cosmos 1626 2.1 23:37:36 76° NNE 23:37:36 76° NNE 23:41:02 10° N
SL-08 R/B 4.4 23:32:58 10° N 23:39:16 84° W 23:41:27 44° S
USA 215 3.6 23:37:22 10° NE 23:43:51 66° NNW 23:50:20 10° WSW
Cosmos 1953 2.7 23:40:26 10° N 23:44:21 52° ENE 23:44:46 49° E
Cosmos 2278 Rocket 2.3 23:40:42 10° NNW 23:46:24 71° ENE 23:48:51 35° SE
Cosmos 468 4.4 23:42:25 10° NNW 23:47:41 90° SW 23:49:02 51° SSE
Cosmos 1674 3.0 23:50:45 54° WNW 23:50:45 54° WNW 23:54:25 10° N
Sich 1 Rocket 4.2 23:49:31 10° NNW 23:53:40 41° W 23:54:00 40° WSW
ADEOS Rocket 3.3 23:52:27 38° SW 23:53:52 46° W 23:59:36 10° NNW
